National Weather Service United States Department of Commerce

Observations from across/near northern Michigan

Marine Observations

Michigan Hourly Observations

 

Yesterday's high, low and precipitation reports from across northern Michigan

Northern Michigan Temperatures and Precipitation

 

Observation Text Products


000
SXUS83 KAPX 190538
OMRAPX

Marine Observations
National Weather Service Gaylord MI
138 AM EDT Sun Sep 19 2021

WIND DATA (KTS) WAVES WATER
SITE DATE/TIME DIR SPEED GUST (FT) TEMP(F) SITE NAME
-------------------------------------------------------------

Lake Superior/St Marys River

GRMM4 190440Z 190 11 17 Grand Marais
WFPM4 190440Z 190 10 14 Whitefish Point
PTIM4 190512Z 140 3 8 Point Iroquois
KANJ 190530Z 80 4 Sault Ste Marie
SWPM4 190518Z 110 3 6 S.W. Pier
LTRM4 190518Z 70 6 7 Little Rapids
RCKM4 190512Z CALM Rock Cut
WNEM4 190512Z CALM West Nebish Island

Lake Huron

DTLM4 190512Z 200 3 6 DeTour Village
KDRM 190455Z CALM Drummond Island
KMCD 190455Z 160 9 15 Mackinac Island
MACM4 190518Z 160 10 11 Mackinac City
KSLH 190455Z 160 4 Cheboygan Airport
CYGM4 190450Z 160 1 7 Cheboygan Marina
KPZQ 190455Z 180 5 Rogers City
PRIM4 190450Z 190 4 9 Presque Isle Light
KAPN 190530Z CALM Alpena Guard Base
APNM4 190510Z 340 3 4 Alpena Harbor Light
TBIM4 190500Z 130 6 8 Thunder Bay Island
45162 190500Z 150 6 8 0.3 Thunder Bay Buoy
SPTM4 190450Z CALM Sturgeon Point Light
KOSC 190455Z CALM Oscoda
TAWM4 190440Z 50 2 4 Tawas Point
GSLM4 190440Z 80 8 11 Gravelly Shoals
45003 190510Z 120 6 61 Northern Lake Huron Buoy
45008 190510Z 90 8 10 66 Central Lake Huron Buoy
45163 190500Z 100 8 10 1.0 Saginaw Bay Buoy
KP58 190455Z 100 9 Port Hope

Lake Michigan

45002 190510Z 120 12 14 66 Northern Lake Michigan Buoy
KISQ 190455Z 130 6 Manistique
NABM4 190440Z 150 16 18 Naubinway
WSLM4 190500Z 40 5 60 White Shoal Light
KSJX 190455Z 120 4 St James
KPLN 190530Z CALM Pellston
KMGN 190455Z 60 4 Harbor Springs
45022 190520Z 130 10 14 0.7 67 Little Traverse Bay Buoy
KCVX 190455Z 140 6 Charlevoix
NMIM4 190428Z CALM North Manitou Island
GTLM4 190440Z 150 4 9 Grand Traverse Light
KTVC 190530Z CALM Traverse City
KFKS 190455Z CALM Frankfort
MEEM4 190440Z 110 6 9 Manistee Harbor
BSBM4 190440Z 120 8 12 Big Sable Point
LDTM4 190512Z 90 6 8 Ludington
KLDM 190455Z 100 5 Ludington Airport
45024 190510Z 130 10 12 1.3 68 Buoy near Ludington


000
ASUS43 KDTX 190510
RWRMI
MICHIGAN HOURLY REGIONAL WEATHER ROUNDUP
NATIONAL WEATHER SERVICE DETROIT/PONTIAC MI
100 AM EDT SUN SEP 19 2021

NOTE: "FAIR" INDICATES FEW OR NO CLOUDS BELOW 12,000 FEET WITH NO
SIGNIFICANT WEATHER AND/OR OBSTRUCTION TO VISIBILITY.

MIZ047>049-052>055-059>063-066>070-074>076-081>083-190600-
SOUTHEAST LOWER MICHIGAN

CITY SKY/WX TMP DP RH WIND PRES REMARKS
ADRIAN CLEAR 61 52 72 E6 30.21S
ALMA CLEAR 50 48 93 CALM 30.23R
ANN ARBOR CLEAR 57 47 69 NE5 30.20S
BAD AXE CLEAR 44 43 97 E3 30.23S
CARO CLEAR 46 44 95 CALM 30.22S
DETROIT CITY CLEAR 60 49 66 N6 30.21S
DETROIT CLEAR 60 49 66 NE6 30.21S
FLINT CLEAR 54 48 80 E3 30.23S
GROSSE ILE CLOUDY 62 54 76 NE8 30.19F
HILLSDALE CLEAR 61 53 73 E6 30.20S
HOWELL CLEAR 56 50 80 E5 30.21F

CITY SKY/WX TMP DP RH WIND PRES REMARKS
JACKSON CLEAR 61 53 75 NE6 30.20S
LAMBERTVILLE CLEAR 57 54 90 CALM 30.19F
LANSING CLEAR 56 51 84 E5 30.21S
LAPEER CLEAR 46 46 100 CALM 30.23F
MASON CLEAR 57 53 87 CALM 30.21S
MONROE CLEAR 58 54 84 NW6 30.19S
MT. CLEMENS CLEAR 54 54 98 N6 30.20S
PONTIAC CLEAR 55 32 41 NE5 30.20F
PORT HOPE N/A 64 51 62 E10 30.22S
PORT HURON N/A 48 46 93 CALM 30.22S FOG
TRI CITIES CLEAR 54 47 77 SE5 30.24R
MIDLAND CLEAR 49 48 97 CALM 30.22S
TROY CLEAR 59 50 71 N3 30.24R
SAGINAW HB CLEAR 49 46 90 CALM 30.23S
$$
MIZ043>046-050>051-056>058-064>065-071>073-077>080-190600-
SOUTHWEST LOWER MICHIGAN

CITY SKY/WX TMP DP RH WIND PRES REMARKS
BATTLE CREEK CLEAR 65 56 72 E6 30.19S
BENTON HARBOR CLEAR 63 58 83 E6 30.15S
BIG RAPIDS CLEAR 51 47 86 CALM 30.21S
COLDWATER CLEAR 63 58 85 E5 30.19S
FREMONT FAIR 58 48 69 E5 30.19S
HOLLAND CLEAR 61 53 75 E5 30.18S
GRAND RAPIDS CLEAR 60 52 74 E7 30.20R
IONIA FAIR 56 48 74 E5 30.20S
KALAMAZOO CLEAR 64 55 72 CALM 30.18S
LUDINGTON CLEAR 53 49 85 E6 30.17S
MARSHALL CLEAR 62 57 84 CALM 30.19S
MOUNT PLEASANT N/A 49 49 100 CALM 30.22R FOG
MUSKEGON CLEAR 60 51 72 E8 30.18S
SOUTH HAVEN CLEAR 63 57 81 E3 30.16S
$$
MIZ016>042-190600-
NORTHERN LOWER MICHIGAN

CITY SKY/WX TMP DP RH WIND PRES REMARKS
ALPENA CLEAR 45 42 89 CALM 30.22F
BEAVER ISLAND CLEAR 48 48 100 SE5 30.19S
BELLAIRE CLEAR 47 47 99 CALM 30.21R
CADILLAC CLEAR 52 46 78 E3 30.21R
CHARLEVOIX CLEAR 54 49 86 SE7 30.19F
FRANKFORT CLEAR 52 48 88 CALM 30.18S
GAYLORD CLEAR 53 45 74 SE6 30.23R
GRAYLING CLEAR 43 42 97 CALM 30.22S
HARBOR SPRINGS CLEAR 53 49 86 NE5 30.21S
HOUGHTON LAKE CLEAR 48 45 89 E5 30.23S
MANISTEE CLEAR 51 51 100 E5 30.18R
OSCODA CLEAR 43 41 93 CALM 30.23S
PELLSTON CLEAR 45 44 97 CALM 30.22S
ROGERS CITY CLEAR 53 45 75 S6 30.24R
TRAVERSE CITY CLEAR 55 50 83 CALM 30.19R
$$
MIZ007>008-015-190600-
EASTERN UPPER MICHIGAN

CITY SKY/WX TMP DP RH WIND PRES REMARKS
KINROSS CLEAR 53 49 86 S6 30.21S
MACKINAC ISLAN CLEAR 57 46 64 S10G17 30.21S
NEWBERRY CLEAR 50 49 95 S6 30.19S
S. S. MARIE CLEAR 52 44 74 CALM 30.21R
MUNISING N/A 54 48 80 SW9 30.15S
$$
MIZ004>006-011>014-085-190600-
CENTRAL UPPER MICHIGAN

CITY SKY/WX TMP DP RH WIND PRES REMARKS
MANISTIQUE CLEAR 60 52 77 SE7 30.17S
ESCANABA CLEAR 49 48 97 CALM 30.16F
MENOMINEE CLEAR 50 50 100 CALM 30.17S
SAWYER-GWINN CLEAR 50 47 90 S6 30.14S
$$
MIZ001>003-009>011-084-190600-
WESTERN UPPER MICHIGAN

CITY SKY/WX TMP DP RH WIND PRES REMARKS
IRON MOUNTAIN CLEAR 53 48 83 SE5 30.14F
HOUGHTON CLEAR 56 50 80 S6 30.08S
COPPER HARBOR N/A 62 53 72 SW10G22 30.05F
IRONWOOD CLOUDY 63 49 60 S15G23 30.05S
$$

ABBREVIATIONS USED IN REMARKS
TC - TEMPERATURE IN CELSIUS
WCI - WIND CHILL INDEX
HX - HEAT INDEX
VSB - VISIBILITY




000
ASUS63 KAPX 190105
RTPAPX


Eastern Upper/Northern Lower Michigan Temperature and Precip Summary
National Weather Service Gaylord MI
905 PM EDT Sat Sep 18 2021

18 hour High/Low Temperature ending 8 pm EDT
24 hour Precipitation/Snowfall ending 8 pm EDT
Snow Depth observed at 8 pm EDT

.BR APX 0918 ES DH19/TAIRZS/TAIRZI/PPDRZZ/SFDRZZ/SDIRZZ
:..................................................................
: MAX MIN 24 HR SNOW SNOW
:ID LOCATION TEMP TEMP PRECIP FALL DEPTH
:..................................................................
ANJ : Sault Ste Marie : 70 / 48 / 0.00 / 0.0 / 0
APN : Alpena : 71 / 43 / 0.00 / 0.0 / 0
HTL : Houghton Lake : 73 / 41 / 0.00 / 0.0 / 0
PLN : Pellston : 71 / 40 / 0.00 / /
TVC : Traverse City : 72 / 48 / 0.00 / /
GLR : Gaylord : 74 / 43 / 0.00 / /
.END

Cooperative Observations
Temperature/Precipitation/Snowfall values are for 24 hour period
ending 8 pm EDT. Snow Depth is observed at 8 pm EDT.
...................................................................
OBS MAX MIN SNOW SNOW
ID LOCATION TIME TEMP TEMP PCPN FALL DEPTH
...................................................................
FRKM4: Frankfort 2NE :DH1800/ 71 / 54 / 0.00 / 0.0 / 0.0
MAPM4: Maple City 1E :DH1840/ 74 / 48 / 0.00 / 0.0 / 0.0
ONAM4: Onaway 4N :DH1800/ 72 / 44 / 0.00 / 0.0 / 0.0

These data are preliminary and have not undergone final quality
control by the National Centers for Environmental Information.
Therefore...these data are subject to revision. Final
and certified climate data can be accessed at www.ncdc.noaa.gov.

&&

The following are supplemental temperature and precipitation data.
This includes data which are received from non-National Weather
Service maintained observing systems...as well as reports from
public weather spotters. Data is only partially quality controlled
and is not suitable for official climatological records.

.BR APX 0918 ES DH19/TAIRZS/TAIRZI
:
:Automated Temperature Data--18 hr High/Low ending 8 pm EDT
:..................................................................
: MAX MIN
:ID LOCATION TEMP TEMP
:..................................................................
:
ERY : Newberry : 68 / 44
CIU : Kinross : 69 / 45
MCD : Mackinac Island : 65 / 49
DRM : Drummond Island : 66 / 46
SJX : Beaver Island : 69 / 45
SLH : Cheboygan : 66 / 45
PZQ : Rogers City : 63 / 45
CVX : Charlevoix : 67 / 52
MGN : Harbor Springs : 69 / 46
ACB : Bellaire : 72 / 44
FKS : Frankfort : 71 / 46
MBL : Manistee : 73 / 45
CAD : Cadillac : 71 / 43
Y31 : West Branch : 72 / 45
OSC : Oscoda : 67 / 47
LDM : Ludington : 73 / 47
RQB : Big Rapids : 71 / 47
MOP : Mount Pleasant : 72 / 51
IKW : Midland : 72 / 51
.END

U.S. Forest Service Remote Automated Weather Stations (RAWS)
Data is only partially quality controlled
18 hour High/Low Temperature ending 8 pm EDT
Minimum Relative Humidity over past 18 hours
12/24 hour Precipitation ending 8 pm EDT
...................................................................
MAX MIN MIN 12 HR 24 HR
ID LOCATION TEMP TEMP RH PRECIP PRECIP
...................................................................
AGRM4: Alger RAWS : 76 / 43 / 37 / 0.00 / 0.00
ATAM4: Atlanta RAWS : 72 / 34 / 36 / 0.00 / 0.00
BCYM4: Barton City RAWS : 72 / 43 / 41 / 0.00 / 0.00
GYGM4: Grayling RAWS : 75 / 42 / 36 / 0.00 / 0.00
INDM4: Indian River RAWS : 73 / 39 / 39 / 0.00 / 0.00
MMOM4: Mio RAWS : 73 / 40 / 36 / 0.00 / 0.00
NMIM4: N Manitou Island : 71 / 52 / 35 / 0.00 / 0.00
RACM4: Raco RAWS : 71 / 38 / 36 / 0.00 / 0.00
REXM4: Rexton RAWS : 69 / 43 / 43 / 0.00 / 0.00
RSCM4: Roscommon RAWS : 74 / 34 / M / 0.00 / 0.00
RYDM4: Rudyard RAWS : 71 / 38 / 40 / 0.00 / 0.00
SBDM4: The Bear RAWS : 71 / 45 / 40 / 0.00 / 0.00
SCKM4: Silver Creek RAWS : 73 / 47 / 39 / 0.00 / 0.00
WLLM4: Wellston RAWS : 76 / 46 / 32 / 0.00 / 0.00

The following are precipitation reports received by the National
Weather Service in Gaylord...valid for the time period ending
around 8 pm EDT. All reports have been recorded in inches.

Spotter Reports from Eastern Upper and Northern Lower Michigan:

WATER TIME SNOW
LOCATION RAIN SNOW EQUIV PERIOD DEPTH

No reports.

$$